Location: Bowman Observatory
(41.0326°N, 73.6210°W)
Time: 14:07:31
(UTC-04:00)

Cosmos 2298 Rocket - Visible Passes

Search period start: 26 September 2017 00:00
Search period end: 06 October 2017 00:00
Orbit: 775 x 784 km, 74.0° (Epoch: 25 September)

Date Brightness Start Highest point End Pass type
(mag) Time Alt. Az. Time Alt. Az. Time Alt. Az.
26 Sep 7.0 20:25:40 10° WNW 20:28:25 14° W 20:31:10 10° SW visible
27 Sep 6.6 19:51:07 10° NW 19:55:14 23° W 19:59:19 10° SSW visible
28 Sep 5.8 19:17:07 10° NW 19:21:58 36° W 19:26:48 10° SSW visible
30 Sep 7.6 19:55:53 10° W 19:56:41 10° W 19:57:27 10° W visible
01 Oct 7.1 19:20:06 10° NW 19:23:32 17° W 19:26:57 10° SW visible
03 Oct 7.7 06:04:08 10° ESE 06:05:52 12° E 06:07:35 10° ENE visible
